STARLINK-31233, 58826

Orbit data source: Space-Track

STARLINK-31233, 58826 is a payload satellite owned by SpaceX/Seattle (US) in LEO that was launched on Wed, 24 Jan 2024 UTC via an FALCON 9 launch vehicle from the Air Force Western Test Range (AFWTR). Payload-class satellites include a variety of spacecraft equipped with specific instruments for various scientific and technological missions. These include communications satellites like Starlink; space stations such as the ISS; scientific satellites like the Hubble; Earth observation satellites from companies like Planet Labs, Umbra, and HawkEye 360; GPS; miniature CubeSats for education and research; and military/defense satellites.

Loading next visibility...
Identifier
58826, 2024-017A
Orbit
LEO
Country
Flag of USUS
Related business
Manufacturer
SpaceX/Seattle
Mission
Operational Commercial Communications
Bus & Motor
STARLINK V2M, Unknown motor
Mass
730 kg wet, ~700 kg dry
Launch date (UTC)
2024-01-24 (2 years ago)
Launch vehicle
FALCON 9
Launch site
Air Force Western Test Range (AFWTR)
Object type
Payload
Rocket body
Debris
Shape & HBR
Box + 2 Pan, 17.7 m
Radar Cross Section
33.884 m², Large (>1 m²)

Expand to show TLE details & history
Last TLE update: 2 days ago

TLE from 2 days ago
0 STARLINK-31233
1 58826U 24017A   26171.14680553  .00004501  00000-0  16407-3 0  9993
2 58826  53.1607  88.3672 0001557 110.3885 249.7283 15.30185677135862
Epoch: 2026-06-20T03:31Z
TLE epoch observation values (Epoch: 2026-06-20T03:31:23.997Z)
Latitude
-0.00005°
Longitude
127.15157°
Altitude
476.527 km
Speed
7.629 km/s
True Right ascension
05h 53m 28s
True Declination
0° 00' 00"
Sunlit
Object was in daylight at epoch
Visualization orbit readout
Latitude
Unknown
Longitude
Unknown
Altitude
Unknown
Speed
Unknown
Apparent Right ascension
Unknown
Apparent Declination
Unknown
Sunlit
N/A
Visualization observer readout
Local Sidereal Time
21:31:04
Azimuth
Unknown
Elevation
Unknown
Doppler factor
Unknown
Orbital elements
Apogee altitude
476.581 km
Perigee altitude
474.447 km
Semi-major axis
6,853.651 km
Eccentricity
0.00016
Inclination
53.1607°
RAAN
88.3672°
Arg. of periapsis
110.3885°
True anomaly
249.71156°
Mean anomaly
249.7283°
Eccentric anomaly
249.71993°
Mean motion
3.82525 °/min
Orbital period
94.11 mins
BSTAR
0.00016407
Loading maneuver chart data...
Computing Atmospheric mass density...
Loading historical data...
Loading historical data...
Loading historical data...
Loading historical data...
Loading historical data...
Loading historical data...
Loading historical data...

Documentation

Showing up to 5 results
|